星链-1676 (STARLINK-1676 )

导读 | 星芒AI

STARLINK-1676 是由 SpaceX 开发并部署的星链(Starlink)卫星网络中的一颗低轨道通信卫星。它属于星链计划的第 16 批次发射任务,旨在为全球用户提供高速互联网服务。该卫星运行在约 550 公里的轨道高度,配备先进通信设备,支持宽带数据传输。作为星链系统的一部分,STARLINK-1676 有助于扩大网络覆盖范围,提升连接质量,特别是在偏远和网络基础设施薄弱的地区。

基本信息
目录编号:
46556
目录名称:
STARLINK-1676
国际标识:
2020-070AA
轨道中心:
EARTH
卫星名称:
星链-1676
卫星全名:
星链-1676 (STARLINK-1676 )
卫星状态:
在轨 (已飞行1897 天)
发射日期:
2020-10-06 UTC
国别 :
美国 (US)
星等 :
--
轨道信息
数据来源 国际轨道数据
星历时间: 2025-12-16T04:41:47+0800
12小时前
查看轨道信息
半长轴: 6841.257km
偏心率: 0.0009482
轨道倾角: 53.055°
近地点辐角 137.400°
升交点赤经 182.900°
平近点角 222.774°
近地点: 456.635km
远地点: 469.609km
周期: 93.856分钟
每日圈数: 15.342598
详细信息
固有亮度:
5
最大亮度:
2.5
卫星平台:
Starlink V1.0
覆盖范围:
全球
运营商:
太空探索技术公司
运营商所在国:
美国
制造商(研发单位):
太空探索技术公司
制造商所在国:
美国
使用方式:
暂无
卫星简介
星链(Starlink)计划是由太空探索技术公司(SpaceX)提出的一个巨型低轨卫星互联网星座项目,计划在2019年至2024年间在太空搭建由约1.2万颗卫星组成的“星链”网络,其中1584颗将部署在地球上空550千米处的近地轨道,并从2020年开始工作。该卫星仍在工作。
2D轨道图
3D轨道图
轨道高度分析图
轨道倾角分析图
轨道综合分析图
查看轨道综合分析图